Back to catalog

GEESAT 6-02

AliveNavigationLEO
NORAD 65714·PAYLOAD·🇨🇳 China

Launched Sep 24, 2025 from Yellow Sea Launch Area

Loading…

Next Passes (next 24 hours)

TLE

FreshSource: Space-Track

Epoch: Sep 14, 2026, 00:54 UTC

1 65714U 25214C   26257.03796230  .00001196  00000-0  17076-3 0  9990
2 65714  49.9834 256.7425 0009932 198.1382 161.9203 14.83601167 52699

Track GEESAT 6-02 in real time with AllMySat

Download on the App Store